Date String (YYYY-MM-DD hh:mm:ss) UTC,Instrument flags,Ambient pressure (hPa),Sample flow (lpm),Bypass flow (lpm),Sample temperature (°C),Ambient temperature (°C),ASC tube jacket temperature (°C),LED temperature (°C),Box temperature (°C),Sample RH (%),Span deviation,Mass concentration (μg/m³),Mass concentration (μg/m³),Mass concentration (μg/m³)
DateTimeUTC,F1_M11,P_M11,Q1_M11,Q2_M11,T1_M11,T2_M11,T3_M11,T4_M11,T5_M11,U1_M11,ZSPAN_M11,X0_M11,X2_M11,X1_M11
2023-03-10 11:00:00,,0822.4,5.00,0.00,22.0,20.6,00.0,30.8,23.6,16.4,-000.2,0014.62,0010.60,0010.18
2023-03-10 11:01:00,,0822.3,4.99,0.00,22.0,20.3,00.0,30.8,23.4,16.5,-000.2,0014.68,0010.62,0010.19
2023-03-10 11:02:00,,0822.2,5.01,0.00,21.9,20.1,00.0,30.7,23.4,16.6,-000.2,0014.60,0010.66,0010.22
2023-03-10 11:03:00,,0822.2,5.00,0.00,21.8,19.9,00.0,30.7,23.4,16.6,-000.7,0014.70,0010.70,0010.25
2023-03-10 11:04:00,,0822.3,5.00,0.00,21.8,19.8,00.0,30.7,23.3,16.7,-000.8,0014.71,0010.71,0010.28
2023-03-10 11:05:00,,0822.2,4.99,0.00,21.7,19.6,00.0,30.7,23.1,16.8,-000.9,0014.75,0010.74,0010.30
2023-03-10 11:06:00,,0822.1,5.02,0.00,21.7,20.6,00.0,30.6,23.4,16.8,-000.8,0014.82,0010.78,0010.35
2023-03-10 11:07:00,,0822.2,5.02,0.00,21.9,21.9,00.0,30.6,23.7,16.7,-000.8,0014.44,0010.77,0010.35
2023-03-10 11:08:00,,0822.2,5.02,0.00,22.0,22.5,00.0,30.7,23.9,16.6,-000.9,0014.04,0010.74,0010.34
2023-03-10 11:09:00,,0821.9,5.00,0.00,22.0,21.8,00.0,30.7,23.7,16.6,-000.9,0013.98,0010.73,0010.35
2023-03-10 11:10:00,,0821.6,5.00,0.00,21.9,21.3,00.0,30.7,23.6,16.6,-000.8,0013.99,0010.76,0010.39
2023-03-10 11:11:00,,0821.6,5.01,0.00,21.9,20.9,00.0,30.7,23.6,16.6,-000.8,0013.93,0010.77,0010.41
2023-03-10 11:12:00,,0821.9,5.01,0.00,21.9,20.6,00.0,30.7,23.5,16.6,-001.0,0013.85,0010.76,0010.42
2023-03-10 11:13:00,,0821.9,5.00,0.00,21.9,20.3,00.0,30.7,23.4,16.6,-001.1,0013.91,0010.78,0010.44
2023-03-10 11:14:00,,0821.7,5.00,0.00,21.8,20.0,00.0,30.7,23.3,16.6,-001.0,0013.91,0010.79,0010.45
2023-03-10 11:15:00,,0821.5,5.00,0.00,21.7,19.8,00.0,30.7,23.2,16.7,-001.0,0013.89,0010.82,0010.48
2023-03-10 11:16:00,,0821.6,5.00,0.00,21.7,19.7,00.0,30.6,23.2,16.7,-000.8,0013.94,0010.86,0010.51
2023-03-10 11:17:00,,0821.7,5.00,0.00,21.7,19.8,00.0,30.6,23.2,16.7,-000.8,0013.90,0010.86,0010.52
2023-03-10 11:18:00,,0821.6,5.01,0.00,21.7,21.0,00.0,30.6,23.5,16.6,-000.9,0013.83,0010.86,0010.54
2023-03-10 11:19:00,,0821.6,5.02,0.00,21.9,22.2,00.0,30.6,23.8,16.5,-000.9,0013.79,0010.86,0010.56
2023-03-10 11:20:00,,0821.5,5.00,0.00,22.0,22.4,00.0,30.6,23.9,16.4,-001.2,0013.84,0010.88,0010.57
2023-03-10 11:21:00,,0821.5,4.99,0.00,22.0,21.7,00.0,30.7,23.7,16.4,-001.2,0013.80,0010.85,0010.55
2023-03-10 11:22:00,,0821.5,4.99,0.00,21.9,21.2,00.0,30.7,23.6,16.4,-001.2,0013.79,0010.86,0010.56
2023-03-10 11:23:00,,0821.6,5.00,0.00,21.9,20.9,00.0,30.7,23.6,16.4,-000.9,0013.84,0010.89,0010.57
2023-03-10 11:24:00,,0821.4,5.01,0.00,21.9,20.7,00.0,30.7,23.5,16.4,-000.6,0013.79,0010.91,0010.58
2023-03-10 11:25:00,,0821.4,4.99,0.00,21.9,20.6,00.0,30.7,23.6,16.4,-000.3,0013.83,0010.94,0010.59
2023-03-10 11:26:00,,0821.3,4.99,0.00,21.9,20.5,00.0,30.7,23.6,16.4,-000.4,0013.84,0010.93,0010.59
2023-03-10 11:27:00,,0821.2,5.01,0.00,21.9,20.4,00.0,30.7,23.5,16.4,-000.3,0013.98,0010.97,0010.60
2023-03-10 11:28:00,,0821.2,5.01,0.00,21.9,20.4,00.0,30.7,23.5,16.4,-000.2,0014.13,0011.05,0010.64
2023-03-10 11:29:00,,0821.4,5.00,0.00,21.9,20.2,00.0,30.7,23.4,16.4,-000.1,0014.21,0011.10,0010.68
2023-03-10 11:30:00,,0821.4,4.99,0.00,21.8,19.9,00.0,30.6,23.2,16.4,-000.2,0014.39,0011.18,0010.75
2023-03-10 11:31:00,,0821.2,5.00,0.00,21.7,19.7,00.0,30.6,23.1,16.5,0000.1,0014.85,0011.26,0010.80
2023-03-10 11:32:00,,0821.1,5.02,0.00,21.7,20.5,00.0,30.6,23.3,16.6,-000.0,0015.31,0011.32,0010.86
2023-03-10 11:33:00,,0821.1,4.98,0.00,21.8,21.8,00.0,30.6,23.7,16.5,0000.1,0015.62,0011.37,0010.89
2023-03-10 11:34:00,,0821.1,5.00,0.00,22.0,22.7,00.0,30.6,23.9,16.3,0000.0,0015.59,0011.36,0010.91
2023-03-10 11:35:00,,0821.1,5.01,0.00,22.0,22.1,00.0,30.6,23.8,16.3,-000.3,0015.56,0011.33,0010.90
2023-03-10 11:36:00,,0821.2,5.01,0.00,21.9,21.4,00.0,30.7,23.6,16.3,-000.4,0015.47,0011.31,0010.90
2023-03-10 11:37:00,,0821.1,5.00,0.00,21.9,20.8,00.0,30.7,23.4,16.4,-000.5,0015.45,0011.29,0010.87
2023-03-10 11:38:00,,0821.2,5.00,0.00,21.8,20.4,00.0,30.7,23.3,16.4,-000.8,0015.26,0011.21,0010.83
2023-03-10 11:39:00,,0821.1,5.00,0.00,21.8,20.2,00.0,30.6,23.3,16.4,-000.9,0015.13,0011.14,0010.79
2023-03-10 11:40:00,,0821.0,5.00,0.00,21.8,20.1,00.0,30.6,23.3,16.4,-000.9,0015.12,0011.12,0010.76
2023-03-10 11:41:00,,0821.2,5.00,0.00,21.7,19.9,00.0,30.6,23.2,16.5,-000.9,0015.04,0011.08,0010.73
2023-03-10 11:42:00,,0821.3,5.00,0.00,21.6,19.6,00.0,30.6,23.0,16.6,-000.9,0014.54,0010.98,0010.68
2023-03-10 11:43:00,,0821.3,5.00,0.00,21.5,19.5,00.0,30.5,22.8,16.7,-000.8,0014.06,0010.94,0010.66
2023-03-10 11:44:00,,0821.2,5.01,0.00,21.6,20.6,00.0,30.5,23.2,16.7,-000.8,0013.84,0010.92,0010.62
2023-03-10 11:45:00,,0821.1,5.02,0.00,21.7,21.7,00.0,30.4,23.5,16.6,-001.1,0013.83,0010.89,0010.60
2023-03-10 11:46:00,,0821.1,5.01,0.00,21.8,22.6,00.0,30.5,23.8,16.4,-001.1,0013.78,0010.89,0010.61
2023-03-10 11:47:00,,0821.2,4.96,0.00,21.9,22.1,00.0,30.5,23.7,16.3,-001.0,0013.76,0010.88,0010.62
2023-03-10 11:48:00,,0821.1,5.01,0.00,21.8,21.4,00.0,30.6,23.4,16.4,-001.0,0013.92,0010.91,0010.66
2023-03-10 11:49:00,,0821.0,4.98,0.00,21.8,20.8,00.0,30.6,23.3,16.4,-001.0,0014.04,0010.96,0010.70
2023-03-10 11:50:00,,0821.0,5.00,0.00,21.7,20.3,00.0,30.6,23.2,16.5,-000.8,0014.12,0011.01,0010.70
2023-03-10 11:51:00,,0821.1,5.00,0.00,21.6,19.9,00.0,30.5,23.0,16.6,-001.0,0014.71,0011.03,0010.70
2023-03-10 11:52:00,,0821.0,5.00,0.00,21.5,19.6,00.0,30.5,22.8,16.6,-000.9,0014.86,0011.03,0010.70
2023-03-10 11:53:00,,0820.9,5.00,0.00,21.4,19.3,00.0,30.4,22.7,16.8,-000.9,0014.89,0011.04,0010.72
2023-03-10 11:54:00,,0820.9,5.00,0.00,21.3,19.6,00.0,30.4,22.7,16.8,-001.0,0014.93,0011.05,0010.71
2023-03-10 11:55:00,,0821.0,5.02,0.00,21.5,21.1,00.0,30.4,23.1,16.7,-001.1,0014.86,0011.04,0010.70
2023-03-10 11:56:00,,0821.1,4.97,0.00,21.6,22.2,00.0,30.4,23.5,16.6,-001.0,0014.89,0011.05,0010.70
2023-03-10 11:57:00,,0821.1,4.99,0.00,21.8,22.7,00.0,30.4,23.7,16.4,-000.9,0014.89,0011.04,0010.68
2023-03-10 11:58:00,,0820.9,4.97,0.00,21.8,22.0,00.0,30.5,23.6,16.3,-001.0,0015.23,0011.05,0010.66
2023-03-10 11:59:00,,0820.7,5.00,0.00,21.7,21.3,00.0,30.5,23.4,16.4,-001.0,0015.74,0011.06,0010.65
